Regional Weather Roundup
Issued by NWS State College, PA

Home | Current Version | Previous Version | Graphics & Text | Print | Product List | Glossary On
Versions: 1 2 3 4 5 6 7 8 9 10 11 12 13 14 15 16 17 18 19 20 21 22 23 24 25 26 27 28 29 30 31 32 33 34 35 36 37 38 39 40 41 42 43 44 45 46 47 48 49 50
000
ASUS41 KCTP 250310
RWRCTP

REGIONAL WEATHER ROUNDUP
NATIONAL WEATHER SERVICE STATE COLLEGE PA
1100 PM EDT FRI OCT 24 2014

Note: "fair" indicates few or no clouds below 12,000 feet with no
significant weather and/or obstructions to visibility.

* = STATION THAT DOES NOT REPORT PRECIPITATION /E.G. RAIN...SNOW...ETC/
    THUNDER OR FOG.

PAZ002>004-007>009-013>016-020>023-029>032-250400-
WESTERN PENNSYLVANIA

CITY           SKY/WX    TMP DP  RH WIND       PRES   REMARKS
ERIE           CLOUDY    53  44  71 S3        29.98S
MEADVILLE      CLOUDY    49  41  74 S5        29.99F
FRANKLIN*      CLOUDY    46  39  76 CALM      30.01F
NEW CASTLE       N/A     46  42  86 CALM      30.01F
BEAVER COUNTY  NOT AVBL
BUTLER*        PTCLDY    45  36  70 CALM      30.03S
PITTSBURGH INT CLEAR     47  38  71 CALM      30.01S
PITTSBURGH     CLEAR     51  36  56 SW6       30.01S
INDIANA*       MOCLDY    43  37  81 CALM      30.05S
LATROBE        CLEAR     45  37  76 SW3       30.03S
WASHINGTON CO* CLEAR     37  36  93 CALM      30.03F
$$

PAZ004>006-010>012-017>019-024>028-033>037-041-042-045-046-049>053-250400-
CENTRAL PENNSYLVANIA

CITY           SKY/WX    TMP DP  RH WIND       PRES   REMARKS
BRADFORD       PTCLDY    40  35  83 CALM      29.98S
DUBOIS         PTCLDY    47  37  68 W6        29.99R
CLEARFIELD     CLEAR     45  37  73 SW6       29.99S
JOHNSTOWN      CLEAR     48  35  60 W12       30.01R
ALTOONA        CLEAR     46  38  73 SW6       30.00R
STATE COLLEGE  CLEAR     48  38  67 SW6       29.97S
WILLIAMSPORT   PTCLDY    52  33  48 W9        29.93R
SELINSGROVE    MOCLDY    49  38  65 CALM      29.94R
FT INDIANTOWN  MOCLDY    58  38  46 VRB7      29.92R
CAPITAL CITY   MOCLDY    53  39  59 W7        29.94R
HARRISBURG     MOCLDY    54  39  57 NW9       29.93R
YORK           MOCLDY    52  38  58 W5        29.94R
$$

PAZ038>040-043-044-047-048-054-055-060>062-067>071-250400-
EASTERN PENNSYLVANIA

CITY           SKY/WX    TMP DP  RH WIND       PRES   REMARKS
SCRANTON       CLEAR     51  35  54 N5        29.91S
MOUNT POCONO   PTCLDY    48  32  53 NW9       29.88S
ALLENTOWN      PTCLDY    55  37  50 NW3       29.89R
QUAKERTOWN*    CLEAR     55  37  50 N6        29.89S
READING        MOCLDY    55  36  48 W6        29.89R
LANCASTER      MOCLDY    51  38  60 W8        29.92R
COATESVILLE    MOCLDY    54  39  58 NW13      29.91R
POTTSTOWN      PTCLDY    54  35  48 CALM      29.90R
BLUE BELL      PTCLDY    55  37  50 W3        29.87S
DOYLESTOWN     PTCLDY    54  40  59 N3        29.87R
WILLOW GROVE   NOT AVBL
NORTH PHILA    PTCLDY    58  40  51 NW5       29.88S
PHILADELPHIA   MOCLDY    59  37  44 NW8       29.88R
$$



USA.gov is the U.S. government's official web portal to all federal, state and local government web resources and services.